Content
SEND FEEDBACK

Daily
Averages
Monthly
Summary
Zimbabwe

HARARE, ZIMBABWE


Home > Africa > Zimbabwe
Elevation: 4930 feet     Latitude: 17 55S     Longitude: 031 08E

WEATHER
 
SELECT A DAY
Number of Records: 115,176;   Date Range: 7/1/96 - 12/19/14
 
SHARE

PRINT THIS DATA

[ ← Previous Day ]
WEATHER ALMANAC - FEBRUARY 13, 2013
[ Next Day → ]
[ °C ]   °F
Weather ElementAverageHighLow
Temperature66.8 °F73.4 °F (11:00 am)64 °F (2:00 am)
Dewpoint64 °F66.2 °F (3:00 pm)62.6 °F (1:00 am)
Humidity91 %100 % (6:00 am)73 % (11:00 am)
Barometer30.05 in30.12 in (10:00 am)29.98 in (3:00 pm)
Wind Speed4.7 mph13.8 mph (2:00 pm)
Wind Gust26.5 mph (2:00 pm)
Weather ElementAverage
Visibility7.6 mi
Wind DirectionESE (128.6 °)

Weather ElementTotal
Precipitation---
Cooling Degree Days3.7 (Base 65)
Growing Degree Days18.7 (Base 50)
Averaged from 23 records on February 13, 2013
WEATHER CONDITIONS BREAKOUT
WIND DIRECTION BREAKOUT
WEATHER BY HOUR - FEBRUARY 13, 2013
[ °C ]   °F
Local TimeTemperatureDewpointHumidityBarometerVisibilityWind DirectionWind SpeedGust SpeedPrecipitationEventsConditions
1:00 AM64.4 °F62.6 °F94 %30.06 inEast (80°)3.5 mphClear
2:00 AM64.0 °F63.0 °F95 %19.0 miCalmScattered Clouds
2:00 AM64.4 °F62.6 °F94 %30.06 in6.2 miCalmMostly Cloudy
5:00 AM64.4 °F62.6 °F94 %30.04 inWSW (240°)3.5 mphClear
6:00 AM64.4 °F64.4 °F100 %30.04 in6.2 miWSW (250°)5.8 mphOvercast
7:00 AM66.2 °F64.4 °F94 %30.06 in6.2 miSSW (210°)4.6 mphOvercast
8:00 AM66.0 °F66.0 °F100 %16.0 miWSW (240°)6.9 mphOvercast
8:00 AM66.2 °F64.4 °F94 %30.09 in6.2 miWSW (240°)6.9 mphOvercast
9:00 AM68.0 °F62.6 °F83 %30.09 in6.2 miSouth (190°)9.2 mphMostly Cloudy
10:00 AM69.8 °F62.6 °F78 %30.12 in6.2 miVariable3.5 mphMostly Cloudy
11:00 AM73.4 °F64.4 °F73 %30.09 in6.2 miVariable3.5 mphMostly Cloudy
12:00 PM71.6 °F64.4 °F78 %30.06 in6.2 miSSW (200°)6.9 mphMostly Cloudy
1:00 PM73.4 °F64.4 °F73 %30.04 in6.2 miVariable3.5 mphMostly Cloudy
2:00 PM66.0 °F63.0 °F86 %3.0 miSouth (180°)13.8 mphRainLight Rain
2:00 PM66.2 °F62.6 °F88 %30.01 in3.1 miSouth (180°)13.8 mph26.5 mphRainRain
3:00 PM69.8 °F66.2 °F88 %29.98 in6.2 miVariable2.3 mphMostly Cloudy
4:00 PM66.2 °F64.4 °F94 %29.98 in6.2 miSSE (150°)5.8 mphMostly Cloudy
5:00 PM66.2 °F66.2 °F100 %30.01 in6.2 miVariable2.3 mphMostly Cloudy
6:00 PM66.2 °F64.4 °F94 %30.01 in6.2 miSouth (170°)3.5 mphRainLight Rain
7:00 PM64.4 °F64.4 °F100 %30.04 in6.2 miCalmMostly Cloudy
8:00 PM64.0 °F64.0 °F98 %19.0 miSSE (160°)3.5 mphPartly Cloudy
8:00 PM64.4 °F64.4 °F100 %30.04 in6.2 miSSE (160°)3.5 mphMostly Cloudy
11:00 PM66.2 °F64.4 °F94 %30.06 in6.2 miSouth (180°)2.3 mphMostly Cloudy
Hourly data recorded from FVHA, located miles away from Harare, Zimbabwe







STORIES FROM OUR PARTNERS